TimePDT,TemperatureF,Dew PointF,Humidity,Sea Level PressureIn,VisibilityMPH,Wind Direction,Wind SpeedMPH,Gust SpeedMPH,PrecipitationIn,Events,Conditions,WindDirDegrees,DateUTC
12:53 AM,39.0,39.0,100,30.32,0.2,Calm,Calm,-,N/A,Fog,Fog,0,2011-10-27 07:53:00
1:42 AM,39.2,39.2,100,30.31,0.2,Calm,Calm,-,N/A,Fog,Fog,0,2011-10-27 08:42:00
1:53 AM,39.0,39.0,100,30.32,0.2,Calm,Calm,-,N/A,Fog,Fog,0,2011-10-27 08:53:00
2:37 AM,37.4,37.4,100,30.32,0.2,Calm,Calm,-,N/A,Fog,Fog,0,2011-10-27 09:37:00
2:53 AM,36.0,36.0,100,30.32,0.2,Calm,Calm,-,N/A,Fog,Fog,0,2011-10-27 09:53:00
3:00 AM,35.6,35.6,100,30.31,0.8,Calm,Calm,-,N/A,,Mist,0,2011-10-27 10:00:00
3:11 AM,35.6,35.6,100,30.31,1.2,Calm,Calm,-,N/A,,Scattered Clouds,0,2011-10-27 10:11:00
3:14 AM,35.6,35.6,100,30.31,2.0,Calm,Calm,-,N/A,,Partly Cloudy,0,2011-10-27 10:14:00
3:22 AM,35.6,35.6,100,30.31,3.0,Calm,Calm,-,N/A,,Clear,0,2011-10-27 10:22:00
3:24 AM,35.6,35.6,100,30.31,1.8,Calm,Calm,-,N/A,,Partly Cloudy,0,2011-10-27 10:24:00
3:28 AM,35.6,33.8,93,30.31,1.0,Calm,Calm,-,N/A,,Mist,0,2011-10-27 10:28:00
3:34 AM,37.4,35.6,93,30.31,1.8,Calm,Calm,-,N/A,,Partly Cloudy,0,2011-10-27 10:34:00
3:36 AM,35.6,35.6,100,30.31,3.0,Calm,Calm,-,N/A,,Partly Cloudy,0,2011-10-27 10:36:00
3:48 AM,35.6,35.6,100,30.31,2.0,Calm,Calm,-,N/A,,Clear,0,2011-10-27 10:48:00
3:53 AM,35.1,34.0,96,30.31,3.0,Calm,Calm,-,N/A,,Clear,0,2011-10-27 10:53:00
4:02 AM,35.6,33.8,93,30.31,1.8,Calm,Calm,-,N/A,,Clear,0,2011-10-27 11:02:00
4:11 AM,35.6,35.6,100,30.31,1.0,Calm,Calm,-,N/A,,Clear,0,2011-10-27 11:11:00
4:30 AM,33.8,33.8,100,30.31,0.8,Calm,Calm,-,N/A,,Clear,0,2011-10-27 11:30:00
4:37 AM,33.8,33.8,100,30.30,1.2,Calm,Calm,-,N/A,,Clear,0,2011-10-27 11:37:00
4:53 AM,33.1,33.1,100,30.31,1.2,Calm,Calm,-,N/A,,Clear,0,2011-10-27 11:53:00
5:09 AM,33.8,33.8,100,30.30,0.8,Calm,Calm,-,N/A,,Mist,0,2011-10-27 12:09:00
5:24 AM,33.8,33.8,100,30.31,0.2,Calm,Calm,-,N/A,Fog,Fog,0,2011-10-27 12:24:00
5:38 AM,33.8,33.8,100,30.31,1.0,East,5.8,-,N/A,,Mist,90,2011-10-27 12:38:00
5:40 AM,33.8,33.8,100,30.30,1.8,East,4.6,-,N/A,,Scattered Clouds,90,2011-10-27 12:40:00
5:42 AM,35.6,33.8,93,30.30,4.0,East,4.6,-,N/A,,Scattered Clouds,90,2011-10-27 12:42:00
5:53 AM,36.0,36.0,100,30.31,10.0,East,6.9,-,N/A,,Partly Cloudy,80,2011-10-27 12:53:00
6:48 AM,33.8,33.8,100,30.30,1.2,Calm,Calm,-,N/A,,Partly Cloudy,0,2011-10-27 13:48:00
6:51 AM,32.0,32.0,100,30.30,0.8,Calm,Calm,-,N/A,,Mist,0,2011-10-27 13:51:00
6:53 AM,32.0,32.0,100,30.31,0.8,Calm,Calm,-,N/A,,Mist,0,2011-10-27 13:53:00
7:05 AM,33.8,32.0,93,30.29,1.2,Calm,Calm,-,N/A,,Scattered Clouds,0,2011-10-27 14:05:00
7:13 AM,32.0,32.0,100,30.30,0.8,Calm,Calm,-,N/A,,Mist,0,2011-10-27 14:13:00
7:20 AM,33.8,32.0,93,30.30,1.2,Calm,Calm,-,N/A,,Partly Cloudy,0,2011-10-27 14:20:00
7:25 AM,33.8,32.0,93,30.30,2.0,Calm,Calm,-,N/A,,Partly Cloudy,0,2011-10-27 14:25:00
7:35 AM,32.0,32.0,100,30.30,1.2,Calm,Calm,-,N/A,,Clear,0,2011-10-27 14:35:00
7:44 AM,32.0,32.0,100,30.30,0.8,East,3.5,-,N/A,,Clear,80,2011-10-27 14:44:00
7:50 AM,33.8,33.8,100,30.30,1.5,East,5.8,-,N/A,,Clear,90,2011-10-27 14:50:00
7:53 AM,34.0,34.0,100,30.30,5.0,East,4.6,-,N/A,,Clear,80,2011-10-27 14:53:00
8:53 AM,36.0,36.0,100,30.32,10.0,ENE,5.8,-,N/A,,Clear,70,2011-10-27 15:53:00
9:53 AM,39.0,37.9,96,30.32,10.0,East,4.6,-,N/A,,Mostly Cloudy,100,2011-10-27 16:53:00
10:53 AM,41.0,39.9,96,30.32,10.0,East,6.9,-,N/A,,Mostly Cloudy,90,2011-10-27 17:53:00
11:53 AM,46.0,43.0,89,30.31,10.0,East,3.5,-,N/A,,Mostly Cloudy,80,2011-10-27 18:53:00
12:21 PM,48.2,44.6,87,30.29,10.0,SE,3.5,-,N/A,,Scattered Clouds,130,2011-10-27 19:21:00
2:51 PM,53.6,42.8,67,30.22,10.0,South,3.5,-,N/A,,Mostly Cloudy,180,2011-10-27 21:51:00
2:53 PM,53.1,43.0,69,30.22,10.0,Variable,3.5,-,N/A,,Mostly Cloudy,0,2011-10-27 21:53:00
3:13 PM,53.6,41.0,62,30.20,10.0,ESE,3.5,-,N/A,,Scattered Clouds,110,2011-10-27 22:13:00
3:53 PM,53.1,41.0,64,30.19,10.0,Variable,3.5,-,N/A,,Clear,0,2011-10-27 22:53:00
4:53 PM,51.1,43.0,74,30.16,10.0,NE,4.6,-,N/A,,Clear,50,2011-10-27 23:53:00
5:53 PM,46.9,42.1,83,30.12,10.0,ENE,5.8,-,N/A,,Clear,60,2011-10-28 00:53:00
6:53 PM,43.0,39.9,89,30.10,10.0,NE,6.9,-,N/A,,Clear,50,2011-10-28 01:53:00
7:53 PM,42.1,39.9,92,30.07,10.0,East,3.5,-,N/A,,Clear,90,2011-10-28 02:53:00
8:53 PM,42.1,39.9,92,30.05,10.0,Calm,Calm,-,N/A,,Clear,0,2011-10-28 03:53:00
9:53 PM,43.0,39.9,89,30.03,10.0,ESE,3.5,-,N/A,,Clear,110,2011-10-28 04:53:00
10:53 PM,43.0,39.9,89,30.01,10.0,ENE,5.8,-,N/A,,Clear,70,2011-10-28 05:53:00
11:53 PM,43.0,39.9,89,30.00,10.0,Calm,Calm,-,N/A,,Partly Cloudy,0,2011-10-28 06:53:00